Regional Weather Roundup
Issued by NWS

Home | Current Version | Previous Version | Graphics & Text | Print | Product List | Glossary On
Versions: 1 2 3 4 5 6 7 8 9 10 11 12 13 14 15 16 17 18 19 20 21 22 23 24 25 26 27 28 29 30 31 32 33 34 35 36 37 38 39 40 41 42 43 44 45 46 47 48 49 50
407
ASUS44 KMEG 130110
RWRTN
TENNESSEE HOURLY STATE WEATHER ROUNDUP
NATIONAL WEATHER SERVICE MEMPHIS TN
700 PM CST FRI FEB 12 2016

TNZ002-004-019-021-049-052-054-088>092-130200-
WEST TENNESSEE

CITY           SKY/WX    TMP DP  RH WIND       PRES   REMARKS
MEMPHIS INTL   CLEAR     45  26  47 NE5       30.33R
NWS MEMPHIS      N/A     42 N/A N/A MISG        N/A
JACKSON        CLEAR     35  24  64 N6        30.34R WCI  30
DYERSBURG      CLEAR     37  25  60 NE10      30.38R WCI  30
UNION CITY     CLEAR     30  25  80 NE6       30.35R WCI  24
PARIS          CLEAR     30  21  69 N6        30.36R WCI  24
LEXINGTON      CLEAR     36  23  60 N7        30.32R WCI  30
$$

TNZ008-025-027-028-033-062-065-066-130200-
NORTH MIDDLE TENNESSEE

CITY           SKY/WX    TMP DP  RH WIND       PRES   REMARKS
NASHVILLE      CLOUDY    36  23  59 NW13      30.32R WCI  27
CLARKSVILLE    MOCLDY    33  24  69 NW13      30.35R WCI  24
SMYRNA         CLOUDY    36  26  67 NW14      30.33R WCI  27
COOKEVILLE     PTCLDY    34  27  75 NW8       30.24R WCI  27
CROSSVILLE     CLOUDY    32  24  72 NW16G26   30.18R WCI  21
$$

TNZ061-075-076-078-094-096-097-130200-
SOUTH MIDDLE TENNESSEE

CITY           SKY/WX    TMP DP  RH WIND       PRES   REMARKS
FAYETTEVILLE   MOCLDY    43  27  52 NW9G18    30.24R
TULLAHOMA      CLEAR     34  27  75 N10       30.25R WCI  26
WINCHESTER     CLEAR     36  27  69 N9        30.25R WCI  29
MCMINNVILLE    CLEAR     34  27  75 NW6       30.25R WCI  29
COLUMBIA       PTCLDY    37  27  65 NW5       30.28R WCI  34
SHELBYVILLE    CLEAR     36  28  75 N14       30.29R WCI  27
$$

TNZ017-018-042-046-047-130200-
NORTHEAST TENNESSEE

CITY           SKY/WX    TMP DP  RH WIND       PRES   REMARKS
TRI CITIES     CLOUDY    32  26  78 W14       30.11R WCI  22
$$

TNZ012-013-036-069-073-074-130200-
CENTRAL EAST TENNESSEE

CITY           SKY/WX    TMP DP  RH WIND       PRES   REMARKS
KNOXVILLE      CLOUDY    35  27  72 W9        30.21R WCI  28
OAK RIDGE      CLOUDY    36  27  69 CALM      30.22R
GATLINBURG     CLOUDY    34  27  75 CALM      30.19S
MORRISTOWN     CLOUDY    34  27  75 W7        30.16R WCI  28
$$

TNZ083-085-099-130200-
SOUTHEAST TENNESSEE

CITY           SKY/WX    TMP DP  RH WIND       PRES   REMARKS
CHATTANOOGA    PTCLDY    42  27  55 N15       30.21R
$$

SKY/WX REPORTED AS FAIR MEANS FEW OR NO CLOUDS BELOW
12 THOUSAND FEET.





USA.gov is the U.S. government's official web portal to all federal, state and local government web resources and services.